Home   Weather   Caen   Past weeks

Flag for France Past Weather in Caen, Lower Normandy, France — Yesterday and Last 2 Weeks

Now
36 °F

Fog.


Feels Like: 33 °F
Forecast: 42 / 50 °F
Wind: 3 mph from Southwest

Location: Caen Airport

Current Time: Apr 24, 2017 at 7:42:27 am

Latest Report: Apr 24, 2017 at 7:00 am


Visibility: 3 mi

Pressure: 30.12 "Hg

Humidity: 100%

Dew Point: 36 °F

Location of CaenLocation

Past Weather in Caen — Graph

°F

Caen Temperature Yesterday

Maximum temperature yesterday: 59 °F (at 1:30 pm)
Minimum temperature yesterday: 34 °F (at 5:30 am)
Average temperature yesterday: 49 °F

High & Low Weather Summary for the Past Weeks

 TemperatureHumidityPressure
High79 °F (Apr 9, 3:00 pm)100% (Apr 9, 6:00 am)30.63 "Hg (Apr 9, 6:00 am)
Low32 °F (Apr 20, 6:00 am)28% (Apr 9, 4:30 pm)30.07 "Hg (Apr 13, 4:30 pm)
Average49 °F75%30.29 "Hg
* Reported Apr 9 6:00 am — Apr 24 6:30 am, Caen, Weather by CustomWeather, © 2017

Note: Actual official high and low records may vary slightly from our data, if they occured in-between our weather recording intervals... More about our weather records

Advertising

Caen Weather History for the Previous 24 Hours

Scroll right to see more
 ConditionsComfort  
Time TempWeatherWind HumidityBarometerVisibility
6:30 am
Mon, Apr 24
34 °FFog.5 mph93%30.12 "Hg3 mi
5:30 am36 °FClear.3 mph100%30.12 "Hg4 mi
4:30 am37 °FClear.2 mph100%30.15 "Hg4 mi
4:00 am37 °FClear.3 mph93%30.15 "Hg4 mi
3:30 am36 °FClear.3 mph93%30.15 "Hg5 mi
3:00 am39 °FClear.1 mph87%30.18 "Hg5 mi
2:30 am39 °FClear.No wind93%30.18 "Hg10 mi
2:00 am39 °FClear.2 mph87%30.18 "Hg10 mi
1:30 am43 °FClear.2 mph81%30.18 "Hg10 mi
1:00 am43 °FClear.1 mph81%30.21 "Hg10 mi
12:30 am45 °FClear.No wind81%30.21 "Hg10 mi
12:00 am45 °FClear.No wind81%30.21 "Hg10 mi
11:30 pm
Sun, Apr 23
46 °FClear.No wind82%30.21 "Hg10 mi
11:00 pm48 °FClear.2 mph76%30.24 "Hg10 mi
10:30 pm48 °FClear.3 mph76%30.24 "Hg10 mi
10:00 pm48 °FClear.3 mph82%30.24 "Hg10 mi
9:30 pm50 °FClear.5 mph71%30.24 "Hg10 mi
9:00 pm52 °FPassing clouds.5 mph72%30.24 "HgN/A
8:30 pm54 °FSunny.6 mph63%30.24 "Hg10 mi
8:00 pm55 °FSunny.6 mph47%30.24 "Hg10 mi
7:30 pm57 °FPassing clouds.7 mph44%30.24 "HgN/A
7:00 pm57 °FPassing clouds.6 mph44%30.24 "HgN/A
6:30 pm59 °FPassing clouds.7 mph42%30.24 "HgN/A
6:00 pm59 °FPassing clouds.7 mph45%30.24 "HgN/A
5:30 pm59 °FSunny.6 mph42%30.24 "Hg10 mi
5:00 pm59 °FPassing clouds.6 mph42%30.27 "HgN/A
4:30 pm59 °FPassing clouds.6 mph42%30.27 "HgN/A
4:00 pm59 °FBroken clouds.7 mph48%30.27 "HgN/A
3:00 pm59 °FPassing clouds.6 mph48%30.30 "HgN/A
2:30 pm59 °FPartly sunny.5 mph45%30.30 "HgN/A
2:00 pm59 °FSunny.5 mph45%30.30 "Hg10 mi
1:30 pm59 °FPassing clouds.3 mph42%30.30 "HgN/A
1:00 pm57 °FPassing clouds.3 mph44%30.33 "HgN/A
12:30 pm57 °FPassing clouds.6 mph44%30.33 "HgN/A
12:00 pm55 °FPassing clouds.6 mph55%30.33 "HgN/A
11:30 am54 °FSunny.6 mph58%30.33 "Hg10 mi
11:00 am52 °FClear.8 mph67%30.36 "Hg5 mi
10:30 am50 °FClear.7 mph71%30.36 "Hg4 mi
10:00 am48 °FClear.6 mph76%30.36 "Hg4 mi
9:30 am46 °FClear.3 mph87%30.36 "Hg5 mi
9:00 am43 °FFog.2 mph100%30.36 "Hg3 mi
8:00 am37 °FFog.1 mph100%30.33 "Hg2 mi
7:30 am36 °FFog.1 mph100%30.33 "Hg2 mi
7:00 am36 °FFog.No wind100%30.33 "Hg1 mi
Weather by CustomWeather, © 2017

See weather overviewHow to use our weather pages